Weather History for KPKB - December, 2012

Change the Weather History Date:

Sunday, December 30, 2012

  Actual Average Record
Temperature  
Mean Temperature 25 °F 32 °F  
Max Temperature 30 °F 40 °F 67 °F (1971)
Min Temperature 20 °F 24 °F -10 °F (1917)
Degree Days  
Heating Degree Days 40 33  
Month to date heating degree days 722 894  
Cooling Degree Days 0 0  
Month to date cooling degree days 0 0  
Year to date cooling degree days 1180 955  
Moisture  
Dew Point 21 °F    
Average Humidity 81    
Maximum Humidity 92    
Minimum Humidity 69    
Precipitation  
Precipitation T in 0.09 in 1.66 in (1990)
Month to date precipitation 6.92 3.01  
Year to date precipitation 43.47 41.10  
Sea Level Pressure  
Sea Level Pressure 30.34 in    
Wind  
Wind Speed 7 mph (WSW)    
Max Wind Speed 21 mph    
Max Gust Speed 32 mph    
Visibility 8 miles    
Events Snow    
T = Trace of Precipitation, MM = Missing Value Source: NWS Daily Summary

Daily Weather History Graph

Daily Weather History Graph

Search for Another Location

Airport or City:

Trip Planner

Search our weather history database for the weather conditions in past years. The results will help you decide how hot, cold, wet, or windy it might be!

Date:

Astronomy

Dec. 30, 2012 Rise Set
Actual Time 7:45 AM EST 5:11 PM EST
Civil Twilight 7:15 AM EST 5:41 PM EST
Nautical Twilight 6:41 AM EST 6:15 PM EST
Astronomical Twilight 6:09 AM EST 6:48 PM EST
Moon 7:40 PM EST (12/30) 8:54 AM EST (12/30)
Length of Visible Light 10h 26m
Length of Day
9h 26m
Waning Gibbous, 95% of the Moon is Illuminated
Dec 30
Waning Gibbous
Jan 4
Last Quarter
Jan 11
New
Jan 18
First Quarter
Jan 26
Full

Hourly Weather History & Observations

Time (EST) Temp. Windchill Dew Point Humidity Pressure Visibility Wind Dir Wind Speed Gust Speed Precip Events Conditions
12:19 AM 28.4 °F 16.6 °F 24.8 °F 86% 30.08 in 7.0 mi West 16.1 mph 32.2 mph 0.00 in   Overcast
12:33 AM 28.4 °F 18.0 °F 24.8 °F 86% 30.09 in 6.0 mi West 12.7 mph 17.3 mph 0.00 in   Haze
12:53 AM 28.0 °F 15.7 °F 24.1 °F 85% 30.12 in 7.0 mi West 17.3 mph 26.5 mph 0.00 in   Overcast
1:32 AM 28.4 °F 17.0 °F 23.0 °F 80% 30.12 in 4.0 mi West 15.0 mph 27.6 mph 0.00 in Snow Light Snow
1:53 AM 28.0 °F 16.1 °F 23.0 °F 81% 30.16 in 5.0 mi West 16.1 mph 21.9 mph 0.00 in Snow Light Snow
2:53 AM 27.0 °F 16.1 °F 23.0 °F 85% 30.20 in 6.0 mi West 12.7 mph 18.4 mph 0.00 in   Overcast
3:32 AM 26.6 °F 16.2 °F 21.2 °F 80% 30.20 in 9.0 mi West 11.5 mph 23.0 mph N/A   Overcast
3:53 AM 27.0 °F 17.3 °F 21.9 °F 81% 30.24 in 9.0 mi West 10.4 mph 18.4 mph N/A   Overcast
4:43 AM 26.6 °F 17.5 °F 23.0 °F 86% 30.23 in 8.0 mi West 9.2 mph - N/A   Overcast
4:53 AM 27.0 °F 18.7 °F 23.0 °F 85% 30.27 in 8.0 mi West 8.1 mph - N/A   Overcast
5:22 AM 26.6 °F 16.8 °F 21.2 °F 80% 30.26 in 8.0 mi WSW 10.4 mph 18.4 mph N/A   Overcast
5:53 AM 27.0 °F 17.3 °F 21.9 °F 81% 30.31 in 8.0 mi West 10.4 mph 19.6 mph N/A   Overcast
6:02 AM 26.6 °F 16.8 °F 21.2 °F 80% 30.29 in 8.0 mi WSW 10.4 mph 19.6 mph N/A   Overcast
6:53 AM 27.0 °F 18.0 °F 21.9 °F 81% 30.35 in 9.0 mi WSW 9.2 mph 16.1 mph N/A   Overcast
7:53 AM 27.0 °F 17.3 °F 21.0 °F 78% 30.39 in 9.0 mi West 10.4 mph - N/A   Overcast
8:53 AM 27.0 °F 19.5 °F 21.0 °F 78% 30.41 in 7.0 mi West 6.9 mph - N/A   Overcast
9:53 AM 27.0 °F 16.1 °F 19.9 °F 75% 30.44 in 10.0 mi WSW 12.7 mph 19.6 mph N/A   Mostly Cloudy
10:02 AM 26.6 °F 18.2 °F 19.4 °F 74% 30.40 in 10.0 mi West 8.1 mph 20.7 mph N/A   Scattered Clouds
10:38 AM 28.4 °F 18.5 °F 21.2 °F 74% 30.42 in 10.0 mi SW 11.5 mph 19.6 mph N/A   Overcast
10:53 AM 28.0 °F 21.7 °F 21.0 °F 75% 30.45 in 10.0 mi SW 5.8 mph - N/A   Overcast
11:53 AM 28.0 °F 21.7 °F 19.9 °F 72% 30.45 in 9.0 mi WSW 5.8 mph - N/A   Overcast
12:53 PM 27.0 °F 18.7 °F 21.9 °F 81% 30.44 in 4.0 mi WSW 8.1 mph - N/A   Haze
1:53 PM 28.0 °F 19.3 °F 19.9 °F 72% 30.44 in 9.0 mi WSW 9.2 mph - 0.00 in   Overcast
2:53 PM 28.0 °F 20.8 °F 19.9 °F 72% 30.44 in 10.0 mi WSW 6.9 mph - N/A   Overcast
3:53 PM 28.0 °F 20.8 °F 21.0 °F 75% 30.45 in 9.0 mi SW 6.9 mph - N/A   Overcast
4:53 PM 28.0 °F 22.8 °F 21.0 °F 75% 30.44 in 9.0 mi SSW 4.6 mph - N/A   Overcast
5:53 PM 27.0 °F 21.6 °F 19.0 °F 72% 30.44 in 10.0 mi SW 4.6 mph - N/A   Overcast
6:53 PM 26.1 °F 19.4 °F 19.0 °F 75% 30.46 in 10.0 mi SSW 5.8 mph - N/A   Mostly Cloudy
7:27 PM 26.6 °F 22.6 °F 19.4 °F 74% 30.43 in 10.0 mi SSW 3.5 mph - N/A   Scattered Clouds
7:53 PM 25.0 °F - 19.0 °F 78% 30.45 in 10.0 mi Calm Calm - N/A   Clear
8:53 PM 24.1 °F 19.7 °F 19.0 °F 81% 30.47 in 10.0 mi South 3.5 mph - N/A   Clear
9:53 PM 21.9 °F - 19.0 °F 89% 30.46 in 10.0 mi Calm Calm - N/A   Clear
10:53 PM 21.9 °F 17.2 °F 19.0 °F 89% 30.43 in 8.0 mi SSE 3.5 mph - N/A   Clear
11:53 PM 19.9 °F - 17.1 °F 89% 30.42 in 4.0 mi Calm Calm - N/A   Clear